USA 170

Last updated on Wed Sep 09 2026 00:02:58 GMT+0000 (Coordinated Universal Time)

1 27875U 03040A 26250.78810885 .00000110 00000+0 00000+0 0 9996 2 27875 10.6719 47.1396 0001587 161.1241 86.5104 1.00267444 33820
UTC large
Height (km)
Speed (km/s)
/
Latitude / Longitude
Inclination (degrees)
Orbital Period (minutes)
Azimuth
Elevation
Range (km)
Doppler Factor

Next 0 passes for location: London (51.5072 / 0.1276)

No passes found over London.
USA 170